[[{"header":{"parameterUnit":"m.s-1","parameterCategory":1,"la1":30.2991,"la2":30.254,"lo1":-89.0895,"lo2":-89.0444,"dy":0.0017,"dx":0.0017,"nx":28,"ny":28,"refTime":"2023-10-20T03:00:00:Z","depth":0,"parameterNumber":2,"parameterNumberName":"U-component_of_WINDS"},"data":[0,0,0,0,0,0,0,0,0,0,0,0,0,0,0,0,0,0,0,0,0,0,0,0,0,0,0,0,0,0,0,0,0,0,0,0,0,0,0,0,0,0,0,0,0,0,0,0,0,0,0,0,0,0,0,0,0,0,-1.4132,-1.4132,0,-1.4066,-1.4065,-1.4064,-1.3978,-1.3977,-1.3975,-1.3974,-1.3906,-1.3905,-1.3905,0,0,0,0,0,0,0,0,0,0,0,0,0,-1.4187,-1.4186,-1.4132,-1.4131,-1.4131,-1.4066,-1.4065,-1.4064,-1.3978,-1.3977,-1.3975,-1.3973,-1.3906,-1.3905,-1.3905,0,0,0,0,0,0,0,0,0,0,0,0,0,-1.4146,-1.4186,-1.4132,-1.408,-1.4075,-1.4066,-1.4065,-1.4064,-1.3979,-1.3977,-1.3975,-1.3973,-1.3906,-1.3906,-1.3905,-1.3942,0,0,-1.3902,-1.3902,0,0,0,0,0,0,0,0,-1.4149,-1.4144,-1.4089,-1.4084,-1.4078,-1.4028,-1.4059,-1.4023,-1.3979,-1.4015,-1.3974,-1.3972,-1.3948,-1.3944,-1.3936,-1.3939,-1.3936,-1.3902,-1.3902,-1.3902,-1.3901,0,0,0,0,0,0,0,-1.4151,-1.4147,-1.4106,-1.4088,-1.4081,-1.4061,-1.4052,-1.4052,-1.3994,-1.4012,-1.4006,-1.3999,-1.3945,-1.3937,-1.3934,-1.3935,-1.3902,-1.3902,-1.3901,-1.3901,-1.3966,-1.3968,0,0,0,0,0,0,-1.4162,-1.415,-1.4108,-1.4104,-1.4109,-1.4061,-1.4052,-1.4046,-1.3994,-1.3984,-1.4001,-1.3995,-1.3939,-1.3935,-1.3931,-1.3971,-1.3902,-1.3901,-1.39,-1.3964,-1.3966,-1.3969,0,0,0,0,0,0,-1.4164,-1.4159,-1.4111,-1.4125,-1.4117,-1.4063,-1.4056,-1.4046,-1.4038,-1.3986,-1.3975,-1.4003,-1.3937,-1.3932,-1.394,-1.3967,-1.39,-1.39,-1.3961,-1.3965,-1.3968,-1.4052,0,0,0,0,0,0,-1.4165,-1.416,-1.4173,-1.4126,-1.4117,-1.4121,-1.4058,-1.4046,-1.4037,-1.4029,-1.3985,-1.3976,-1.3935,-1.3942,-1.3939,-1.3965,-1.3899,-1.3958,-1.3963,-1.3967,-1.4046,-1.4057,-1.4067,0,0,0,0,0,-1.4168,-1.4199,-1.4174,-1.417,-1.4132,-1.4122,-1.4117,-1.407,-1.4039,-1.4052,-1.4019,-1.3977,-1.3966,-1.3943,-1.394,-1.3966,-1.3956,-1.3961,-1.3966,-1.4041,-1.4055,-1.4067,0,0,0,0,0,0,-1.425,-1.4192,-1.4163,-1.4181,-1.4157,-1.4108,-1.4122,-1.4086,-1.407,-1.4064,-1.4006,-1.3997,-1.4012,-1.399,-1.3966,-1.4,-1.3955,-1.3959,-1.4013,-1.4026,-1.4036,-1.404,-1.3898,0,0,0,0,0,-1.4271,-1.4268,-1.4217,-1.4237,-1.4227,-1.4177,-1.4171,-1.4137,-1.411,-1.41,-1.4067,-1.4043,-1.4034,-1.4029,-1.4018,-1.4044,-1.4033,-1.406,-1.4071,-1.408,-1.4083,-1.4096,-1.4108,-1.3985,-1.3985,-1.3985,0,0,-1.4312,-1.428,-1.4281,-1.4253,-1.423,-1.4229,-1.4169,-1.417,-1.4168,-1.41,-1.4105,-1.4081,-1.405,-1.4068,-1.4074,-1.405,-1.4116,-1.4086,-1.4093,-1.4092,-1.4103,-1.4114,-1.4125,-1.3988,-1.3988,-1.3987,0,0,-1.4387,-1.4363,-1.4377,-1.4356,-1.4324,-1.4291,-1.4295,-1.4251,-1.4233,-1.4237,-1.4187,-1.4185,-1.417,-1.4151,-1.4139,-1.421,-1.4171,-1.4208,-1.4262,-1.4275,-1.4285,-1.4293,-1.4318,-1.4328,-1.4213,-1.4213,-1.4213,0,-1.4443,-1.4438,-1.4389,-1.4393,-1.4382,-1.4322,-1.4336,-1.4319,-1.4284,-1.4279,-1.4253,-1.4234,-1.4209,-1.4222,-1.4239,-1.4232,-1.4235,-1.4211,-1.4287,-1.4295,-1.4302,-1.4325,-1.4335,-1.4217,-1.4217,-1.4216,-1.4216,0,-1.4508,-1.4506,-1.4521,-1.449,-1.4481,-1.4491,-1.4444,-1.4441,-1.4409,-1.4379,-1.4386,-1.4355,-1.4336,-1.4337,-1.4306,-1.4346,-1.4332,-1.4298,-1.4251,-1.4319,-1.434,-1.4349,-1.4224,-1.4222,-1.4221,-1.422,0,0,-1.4629,-1.4573,-1.4579,-1.4565,-1.4526,-1.4524,-1.4532,-1.4514,-1.4513,-1.4492,-1.4497,-1.4488,-1.4457,-1.4444,-1.441,-1.4422,-1.448,-1.4386,-1.4384,-1.4404,-1.4522,-1.4547,-1.4558,-1.4455,-1.4457,-1.4458,-1.4525,0,-1.4696,-1.4704,-1.4662,-1.4682,-1.468,-1.4624,-1.4631,-1.4608,-1.4582,-1.4577,-1.4547,-1.4541,-1.4501,-1.4493,-1.4502,-1.4471,-1.4503,-1.4466,-1.4459,-1.4459,-1.4466,-1.4569,-1.4595,-1.466,-1.4533,-1.4534,-1.4535,0,-1.4773,-1.4758,-1.4778,-1.4739,-1.4737,-1.4744,-1.4725,-1.4721,-1.4695,-1.4675,-1.4662,-1.4624,-1.4629,-1.4587,-1.4594,-1.457,-1.4565,-1.455,-1.4551,-1.4547,-1.45,-1.4567,-1.4679,-1.4689,-1.4547,-1.4546,-1.4546,0,-1.486,-1.4844,-1.4854,-1.4843,-1.4799,-1.4805,-1.4787,-1.4759,-1.4752,-1.4737,-1.4731,-1.4717,-1.4709,-1.4699,-1.4658,-1.4631,-1.4671,-1.4624,-1.4654,-1.4655,-1.4663,-1.4663,-1.4775,-1.4663,-1.4663,-1.4662,-1.4662,0,-1.4937,-1.4951,-1.4892,-1.4898,-1.4913,-1.4865,-1.4881,-1.4858,-1.4834,-1.4835,-1.4787,-1.4789,-1.4736,-1.4733,-1.4702,-1.4713,-1.471,-1.4694,-1.4685,-1.4697,-1.4699,-1.4692,-1.4686,-1.4665,-1.4664,-1.4664,-1.4664,0,-1.5034,-1.4995,-1.5002,-1.4961,-1.4951,-1.4964,-1.4928,-1.4932,-1.4904,-1.4906,-1.4904,-1.486,-1.4854,-1.4813,-1.4797,-1.4776,-1.4799,-1.4782,-1.4807,-1.4801,-1.4833,-1.483,-1.4943,-1.4955,-1.4837,-1.4838,-1.4839,0,-1.5085,-1.5095,-1.5055,-1.5053,-1.5037,-1.5033,-1.5026,-1.4981,-1.4975,-1.4948,-1.4956,-1.4946,-1.4936,-1.4929,-1.4895,-1.4884,-1.4866,-1.4906,-1.4863,-1.4876,-1.4865,-1.4865,-1.4866,-1.4915,-1.4916,-1.4917,-1.4918,0,-1.518,-1.5161,-1.5152,-1.5138,-1.5131,-1.5117,-1.5101,-1.5102,-1.5051,-1.5048,-1.5041,-1.5034,-1.5019,-1.501,-1.4993,-1.4975,-1.4939,-1.4933,-1.4939,-1.495,-1.4964,-1.4957,-1.4831,-1.4929,-1.4928,-1.4928,-1.4927,-1.4926,-1.5255,-1.5262,-1.5235,-1.5228,-1.5211,-1.5197,-1.5199,-1.5172,-1.5166,-1.515,-1.5124,-1.5121,-1.5097,-1.5071,-1.5057,-1.5054,-1.5033,-1.5042,-1.5044,-1.5047,-1.5053,-1.4967,-1.5051,-1.5051,-1.5051,-1.505,-1.505,0,-1.5347,-1.5327,-1.5321,-1.53,-1.5295,-1.5262,-1.5243,-1.5241,-1.5239,-1.522,-1.5211,-1.5205,-1.5197,-1.5164,-1.5152,-1.5157,-1.514,-1.5156,-1.5154,-1.5151,-1.5073,-1.5068,-1.5169,-1.5169,-1.5169,-1.5169,-1.5169,-1.5169,-1.5394,-1.5403,-1.5381,-1.5383,-1.5363,-1.536,-1.5352,-1.534,-1.5324,-1.5319,-1.5312,-1.5291,-1.5267,-1.5254,-1.5245,-1.5236,-1.5234,-1.5255,-1.524,-1.5167,-1.5156,-1.5145,-1.514,-1.5255,-1.5255,-1.5317,-1.5318,-1.5318]},{"header":{"parameterUnit":"m.s-1","parameterCategory":1,"la1":30.2991,"la2":30.254,"lo1":-89.0895,"lo2":-89.0444,"dy":0.0017,"dx":0.0017,"nx":28,"ny":28,"refTime":"2023-10-20T03:00:00:Z","depth":0,"parameterNumber":3,"parameterNumberName":"V-component_of_WINDS"},"data":[0,0,0,0,0,0,0,0,0,0,0,0,0,0,0,0,0,0,0,0,0,0,0,0,0,0,0,0,0,0,0,0,0,0,0,0,0,0,0,0,0,0,0,0,0,0,0,0,0,0,0,0,0,0,0,0,0,0,2.3061,2.3061,0,2.3067,2.3067,2.3067,2.3118,2.3119,2.312,2.3121,2.3121,2.312,2.3119,0,0,0,0,0,0,0,0,0,0,0,0,0,2.309,2.3089,2.3061,2.3061,2.3062,2.3067,2.3067,2.3067,2.3117,2.3119,2.312,2.3122,2.3122,2.312,2.3119,0,0,0,0,0,0,0,0,0,0,0,0,0,2.3085,2.3089,2.3061,2.3087,2.309,2.3067,2.3067,2.3067,2.3117,2.3119,2.3121,2.3123,2.3122,2.3121,2.3119,2.307,0,0,2.3113,2.3113,0,0,0,0,0,0,0,0,2.3085,2.3083,2.3083,2.3086,2.3088,2.3094,2.3077,2.3068,2.3117,2.3106,2.3121,2.3124,2.311,2.311,2.3106,2.307,2.307,2.3113,2.3112,2.3111,2.3111,0,0,0,0,0,0,0,2.3085,2.3083,2.3063,2.3083,2.3086,2.3097,2.3099,2.3076,2.3097,2.3108,2.3111,2.3112,2.3112,2.3108,2.3107,2.307,2.3113,2.3112,2.3111,2.311,2.2994,2.2992,0,0,0,0,0,0,2.3083,2.3083,2.3063,2.3064,2.3091,2.3095,2.3097,2.309,2.3098,2.3101,2.311,2.3114,2.311,2.3109,2.3107,2.3051,2.3111,2.311,2.3109,2.2996,2.2994,2.2992,0,0,0,0,0,0,2.3083,2.308,2.3063,2.3075,2.3073,2.3093,2.3085,2.3089,2.3085,2.31,2.3103,2.3102,2.3111,2.3109,2.3079,2.3052,2.3109,2.3107,2.2999,2.2995,2.2993,2.2938,0,0,0,0,0,0,2.3084,2.308,2.3063,2.3074,2.3073,2.3036,2.3083,2.3088,2.3083,2.3088,2.3093,2.3096,2.3113,2.3082,2.3077,2.305,2.3106,2.3001,2.2997,2.2994,2.2942,2.2933,2.2925,0,0,0,0,0,2.3084,2.3045,2.3061,2.3059,2.3051,2.3035,2.3034,2.3055,2.308,2.3062,2.3072,2.3096,2.3055,2.3078,2.3074,2.3045,2.3003,2.2998,2.2994,2.2946,2.2935,2.2926,0,0,0,0,0,0,2.3028,2.3047,2.3065,2.3029,2.303,2.3043,2.3021,2.3043,2.3036,2.304,2.3066,2.3067,2.3033,2.3036,2.3061,2.2999,2.3033,2.3028,2.2998,2.2988,2.298,2.298,2.3105,0,0,0,0,0,2.3012,2.2998,2.3015,2.2981,2.2981,2.3001,2.2995,2.3012,2.3013,2.3013,2.302,2.3019,2.3007,2.2997,2.2986,2.2943,2.2945,2.2921,2.2913,2.2906,2.2901,2.2879,2.2869,2.2977,2.2977,2.2977,0,0,2.2977,2.2986,2.2975,2.297,2.2973,2.2958,2.3001,2.2982,2.2971,2.3009,2.2982,2.2988,2.2988,2.2952,2.2936,2.2953,2.2872,2.29,2.2895,2.2893,2.2873,2.2863,2.2854,2.2974,2.2974,2.2975,0,0,2.2906,2.2912,2.2885,2.2888,2.2892,2.2906,2.2899,2.291,2.2915,2.2889,2.2918,2.2904,2.2881,2.2881,2.2878,2.2808,2.283,2.2804,2.276,2.2739,2.273,2.2723,2.2699,2.269,2.2798,2.2798,2.2798,0,2.2862,2.2842,2.2868,2.2848,2.2845,2.2882,2.2854,2.2855,2.2854,2.2851,2.2871,2.2845,2.2847,2.2812,2.2795,2.2791,2.2784,2.2803,2.273,2.2723,2.2716,2.2693,2.2684,2.2795,2.2795,2.2796,2.2796,0,2.2788,2.2773,2.275,2.2752,2.2746,2.2722,2.2744,2.2735,2.2752,2.2763,2.2736,2.2741,2.2732,2.2725,2.2741,2.2691,2.2703,2.2726,2.2761,2.2702,2.2681,2.2673,2.2791,2.2792,2.2793,2.2793,0,0,2.2681,2.2699,2.269,2.2692,2.27,2.2688,2.2666,2.266,2.2651,2.265,2.2632,2.2613,2.2635,2.2631,2.2647,2.2628,2.2574,2.2654,2.2654,2.2639,2.2521,2.2504,2.2493,2.2589,2.2587,2.2586,2.2521,0,2.2613,2.2579,2.2602,2.2563,2.2549,2.2585,2.2565,2.2568,2.2578,2.2567,2.2577,2.2564,2.2594,2.2592,2.2575,2.2584,2.255,2.2589,2.2571,2.257,2.2571,2.2482,2.2464,2.2402,2.2513,2.2511,2.251,0,2.253,2.2528,2.2488,2.2501,2.2496,2.2478,2.2475,2.2464,2.2467,2.2476,2.2473,2.2494,2.2472,2.2507,2.2477,2.2503,2.2497,2.2501,2.2499,2.2498,2.2537,2.2479,2.2383,2.2374,2.2498,2.2499,2.25,0,2.2457,2.2444,2.2419,2.2419,2.2432,2.2419,2.2424,2.243,2.2425,2.2421,2.2418,2.2411,2.2407,2.24,2.2419,2.2443,2.2387,2.2423,2.2393,2.2392,2.2379,2.238,2.2281,2.2375,2.2375,2.2375,2.2375,0,2.238,2.2354,2.2386,2.2371,2.2343,2.237,2.2341,2.2349,2.2354,2.234,2.2369,2.2355,2.238,2.2368,2.2382,2.2356,2.2353,2.2359,2.2364,2.2357,2.2356,2.2354,2.2359,2.2373,2.2373,2.2374,2.2374,0,2.2294,2.2314,2.2289,2.2305,2.2308,2.2287,2.23,2.2286,2.2298,2.228,2.2277,2.2296,2.2284,2.2302,2.2291,2.2301,2.2265,2.2275,2.2264,2.2267,2.2236,2.2239,2.2132,2.212,2.2221,2.222,2.2219,0,2.2243,2.2225,2.2239,2.2233,2.2237,2.2226,2.2222,2.2247,2.2241,2.2244,2.2229,2.222,2.2214,2.2192,2.2204,2.2196,2.2207,2.217,2.2206,2.22,2.2207,2.2208,2.2207,2.2163,2.2161,2.216,2.216,0,2.2152,2.2163,2.2157,2.2155,2.2149,2.2148,2.2148,2.2141,2.2168,2.216,2.2149,2.2144,2.2134,2.2124,2.212,2.2123,2.2145,2.2148,2.2141,2.2134,2.2129,2.2133,2.2245,2.2151,2.2151,2.2152,2.2153,2.2153,2.2083,2.2068,2.2077,2.2069,2.2073,2.2073,2.2061,2.2073,2.2065,2.206,2.2075,2.206,2.2065,2.2061,2.2062,2.2051,2.2067,2.2056,2.2053,2.205,2.2046,2.2131,2.205,2.205,2.205,2.205,2.2051,0,2.1993,2.2001,2.1994,2.1995,2.1989,2.2012,2.2014,2.2007,2.1995,2.1998,2.1992,2.1979,2.197,2.1982,2.1975,2.1964,2.1974,2.1961,2.1962,2.1963,2.2032,2.2039,2.1953,2.1953,2.1953,2.1953,2.1953,2.1953,2.1946,2.1924,2.1936,2.1916,2.1923,2.1911,2.191,2.191,2.1913,2.1899,2.1892,2.1901,2.1907,2.1901,2.1894,2.1897,2.1894,2.1877,2.1884,2.1948,2.1958,2.1967,2.1974,2.1876,2.1876,2.1817,2.1816,2.1816]}]]